| time (UTC) | temp F | wind direction | speed knots | gust knots | rain 1hr in | rain 24hr in | rain mn in | humidity % | barometer mb |
| 20260510034003 | 72 | 155 | 7.8 | 17.4 | 0.00 | 0.00 | 0.00 | 44 | 1018.6 |
| 20260510033003 | 72 | 156 | 12.2 | 19.1 | 0.00 | 0.00 | 0.00 | 42 | 1018.6 |
| 20260510032003 | 72 | 140 | 8.7 | 22.6 | 0.00 | 0.00 | 0.00 | 40 | 1018.4 |
| 20260510031003 | 72 | 144 | 10.4 | 20.0 | 0.00 | 0.00 | 0.00 | 40 | 1018.4 |
| 20260510030004 | 72 | 142 | 10.4 | 24.3 | 0.00 | 0.00 | 0.00 | 41 | 1018.3 |
| 20260510025003 | 72 | 176 | 8.7 | 24.3 | 0.00 | 0.00 | 0.00 | 39 | 1018.2 |
| 20260510023005 | 73 | 150 | 12.2 | 20.9 | 0.00 | 0.00 | 0.00 | 40 | 1017.8 |
| 20260510022004 | 73 | 142 | 7.0 | 26.1 | 0.00 | 0.00 | 0.00 | 39 | 1017.7 |
| 20260510021003 | 72 | 146 | 11.3 | 20.0 | 0.00 | 0.00 | 0.00 | 44 | 1017.5 |
| 20260510020003 | 72 | 142 | 11.3 | 22.6 | 0.00 | 0.00 | 0.00 | 52 | 1017.3 |
| 20260510015003 | 73 | 120 | 11.3 | 22.6 | 0.00 | 0.00 | 0.00 | 52 | 1017.1 |
| 20260510014004 | 74 | 121 | 5.2 | 21.7 | 0.00 | 0.00 | 0.00 | 53 | 1017.3 |
| 20260510013003 | 74 | 135 | 8.7 | 20.0 | 0.00 | 0.00 | 0.00 | 55 | 1017.1 |
| 20260510011003 | 75 | 147 | 7.8 | 20.0 | 0.00 | 0.00 | 0.00 | 53 | 1016.6 |
| 20260510010003 | 75 | 161 | 12.2 | 20.0 | 0.00 | 0.00 | 0.00 | 53 | 1016.7 |
| 20260510005003 | 76 | 183 | 8.7 | 20.0 | 0.00 | 0.00 | 0.00 | 53 | 1016.4 |
| 20260510004003 | 77 | 133 | 12.2 | 20.0 | 0.00 | 0.00 | 0.00 | 51 | 1016.2 |
| 20260510003004 | 78 | 176 | 9.6 | 20.0 | 0.00 | 0.00 | 0.00 | 49 | 1016.2 |
| 20260510002004 | 80 | 154 | 7.8 | 15.6 | 0.00 | 0.00 | 0.00 | 45 | 1016.2 |
| 20260510000004 | 81 | 163 | 7.0 | 20.9 | 0.00 | 0.00 | 0.00 | 44 | 1015.9 |
| 20260509235004 | 80 | 182 | 7.0 | 19.1 | 0.00 | 0.00 | 0.00 | 44 | 1016.0 |
| 20260509234003 | 80 | 173 | 7.8 | 19.1 | 0.00 | 0.00 | 0.00 | 44 | 1015.9 |
| 20260509233004 | 81 | 162 | 7.8 | 18.2 | 0.00 | 0.00 | 0.00 | 44 | 1015.8 |
| 20260509232004 | 81 | 159 | 6.1 | 18.2 | 0.00 | 0.00 | 0.00 | 43 | 1015.9 |
| 20260509231003 | 80 | 188 | 10.4 | 19.1 | 0.00 | 0.00 | 0.00 | 43 | 1015.9 |
| 20260509230003 | 82 | 151 | 12.2 | 20.0 | 0.00 | 0.00 | 0.00 | 43 | 1015.9 |
| 20260509225003 | 81 | 156 | 10.4 | 18.2 | 0.00 | 0.00 | 0.00 | 44 | 1015.8 |
| 20260509224003 | 81 | 166 | 8.7 | 17.4 | 0.00 | 0.00 | 0.00 | 43 | 1015.9 |
| 20260509223003 | 81 | 175 | 4.3 | 20.0 | 0.00 | 0.00 | 0.00 | 43 | 1015.9 |
| 20260509222004 | 82 | 172 | 8.7 | 19.1 | 0.00 | 0.00 | 0.00 | 42 | 1015.9 |
| 20260509220003 | 83 | 165 | 5.2 | 17.4 | 0.00 | 0.00 | 0.00 | 41 | 1016.0 |
| 20260509213003 | 86 | 165 | 5.2 | 17.4 | 0.00 | 0.00 | 0.00 | 39 | 1016.0 |
| 20260509212004 | 86 | 181 | 1.7 | 12.2 | 0.00 | 0.00 | 0.00 | 37 | 1016.2 |
| 20260509211003 | 83 | 177 | 3.5 | 17.4 | 0.00 | 0.00 | 0.00 | 39 | 1016.2 |
| 20260509210004 | 83 | 159 | 5.2 | 17.4 | 0.00 | 0.00 | 0.00 | 37 | 1016.6 |
| 20260509205003 | 84 | 229 | 4.3 | 13.9 | 0.00 | 0.00 | 0.00 | 35 | 1016.6 |
| 20260509204004 | 85 | 245 | 2.6 | 18.2 | 0.00 | 0.00 | 0.00 | 34 | 1016.7 |
| 20260509203003 | 86 | 256 | 4.3 | 14.8 | 0.00 | 0.00 | 0.00 | 33 | 1017.0 |
| 20260509202004 | 86 | 179 | 2.6 | 17.4 | 0.00 | 0.00 | 0.00 | 33 | 1016.9 |
| 20260509201004 | 86 | 177 | 6.1 | 18.2 | 0.00 | 0.00 | 0.00 | 32 | 1017.1 |
| 20260509200004 | 87 | 173 | 2.6 | 14.8 | 0.00 | 0.00 | 0.00 | 32 | 1017.3 |
| 20260509195004 | 87 | 206 | 4.3 | 14.8 | 0.00 | 0.00 | 0.00 | 31 | 1017.2 |
| 20260509194004 | 86 | 212 | 2.6 | 13.0 | 0.00 | 0.00 | 0.00 | 32 | 1017.2 |
| 20260509193003 | 85 | 172 | 7.8 | 17.4 | 0.00 | 0.00 | 0.00 | 33 | 1017.4 |
| 20260509191003 | 85 | 174 | 5.2 | 14.8 | 0.00 | 0.00 | 0.00 | 34 | 1018.0 |
| 20260509190003 | 83 | 174 | 6.1 | 17.4 | 0.00 | 0.00 | 0.00 | 35 | 1018.0 |
| 20260509185003 | 83 | 145 | 3.5 | 18.2 | 0.00 | 0.00 | 0.00 | 36 | 1018.1 |
| 20260509184004 | 84 | 151 | 6.1 | 18.2 | 0.00 | 0.00 | 0.00 | 36 | 1018.2 |
| 20260509183004 | 83 | 169 | 5.2 | 17.4 | 0.00 | 0.00 | 0.00 | 38 | 1018.3 |
| 20260509182004 | 84 | 135 | 4.3 | 18.2 | 0.00 | 0.00 | 0.00 | 38 | 1018.3 |
| 20260509180004 | 83 | 169 | 5.2 | 13.9 | 0.00 | 0.00 | 0.00 | 40 | 1018.3 |
| 20260509175005 | 82 | 170 | 4.3 | 13.0 | 0.00 | 0.00 | 0.00 | 42 | 1018.3 |
| 20260509174004 | 82 | 127 | 3.5 | 18.2 | 0.00 | 0.00 | 0.00 | 43 | 1018.4 |
| 20260509173004 | 82 | 144 | 9.6 | 17.4 | 0.00 | 0.00 | 0.00 | 42 | 1018.4 |
| 20260509172003 | 81 | 165 | 4.3 | 12.2 | 0.00 | 0.00 | 0.00 | 43 | 1018.5 |
| 20260509171004 | 81 | 195 | 5.2 | 12.2 | 0.00 | 0.00 | 0.00 | 44 | 1018.7 |
| 20260509165004 | 80 | 188 | 3.5 | 12.2 | 0.00 | 0.00 | 0.00 | 45 | 1018.6 |
| 20260509164004 | 79 | 177 | 3.5 | 13.9 | 0.00 | 0.00 | 0.00 | 46 | 1018.4 |
| 20260509163006 | 80 | 151 | 5.2 | 13.0 | 0.00 | 0.00 | 0.00 | 46 | 1018.6 |
| 20260509162008 | 78 | 153 | 8.7 | 13.0 | 0.00 | 0.00 | 0.00 | 47 | 1018.7 |
| 20260509161004 | 79 | 152 | 5.2 | 10.4 | 0.00 | 0.00 | 0.00 | 48 | 1018.5 |
| 20260509160006 | 79 | 154 | 2.6 | 8.7 | 0.00 | 0.00 | 0.00 | 48 | 1018.5 |
| 20260509155004 | 78 | 209 | 1.7 | 13.9 | 0.00 | 0.00 | 0.00 | 48 | 1018.6 |
| 20260509153003 | 78 | 157 | 2.6 | 7.8 | 0.00 | 0.00 | 0.00 | 48 | 1018.5 |
| 20260509152003 | 77 | 176 | 0.9 | 2.6 | 0.00 | 0.00 | 0.00 | 50 | 1018.4 |
| 20260509151004 | 74 | 249 | 0.9 | 1.7 | 0.00 | 0.00 | 0.00 | 53 | 1018.3 |
| 20260509150004 | 73 | 1 | 0.0 | 2.6 | 0.00 | 0.00 | 0.00 | 54 | 1018.4 |
| 20260509145003 | 73 | 152 | 0.0 | 4.3 | 0.00 | 0.00 | 0.00 | 56 | 1018.3 |
| 20260509144003 | 71 | 264 | 1.7 | 2.6 | 0.00 | 0.00 | 0.00 | 57 | 1018.5 |
| 20260509143003 | 70 | 32 | 0.9 | 2.6 | 0.00 | 0.00 | 0.00 | 58 | 1018.6 |
| 20260509141003 | 72 | 112 | 0.0 | 1.7 | 0.00 | 0.00 | 0.00 | 58 | 1018.5 |
| 20260509140005 | 70 | 92 | 0.0 | 0.9 | 0.00 | 0.00 | 0.00 | 60 | 1018.4 |
| 20260509135004 | 68 | 26 | 0.0 | 1.7 | 0.00 | 0.00 | 0.00 | 63 | 1018.4 |
| 20260509134004 | 70 | 61 | 0.9 | 2.6 | 0.00 | 0.00 | 0.00 | 60 | 1018.4 |
| 20260509133004 | 66 | 123 | 1.7 | 2.6 | 0.00 | 0.00 | 0.00 | 66 | 1018.4 |
| 20260509131003 | 62 | 90 | 0.0 | 0.0 | 0.00 | 0.00 | 0.00 | 73 | 1018.4 |
| 20260509130004 | 60 | 90 | 0.0 | 0.9 | 0.00 | 0.00 | 0.00 | 75 | 1018.2 |
| 20260509125004 | 60 | 234 | 0.0 | 1.7 | 0.00 | 0.00 | 0.00 | 76 | 1018.2 |
| 20260509124004 | 60 | 284 | 0.0 | 0.9 | 0.00 | 0.00 | 0.00 | 75 | 1018.2 |
| 20260509123004 | 60 | 106 | 0.0 | 0.9 | 0.00 | 0.00 | 0.00 | 76 | 1018.2 |
| 20260509122005 | 60 | 90 | 0.0 | 0.9 | 0.00 | 0.00 | 0.00 | 75 | 1017.9 |
| 20260509121004 | 60 | 127 | 0.0 | 2.6 | 0.00 | 0.00 | 0.00 | 74 | 1017.9 |
| 20260509115004 | 60 | 105 | 0.9 | 1.7 | 0.00 | 0.00 | 0.00 | 75 | 1017.8 |
| 20260509114004 | 60 | 144 | 0.0 | 1.7 | 0.00 | 0.00 | 0.00 | 75 | 1017.7 |
| 20260509113003 | 60 | 91 | 0.9 | 1.7 | 0.00 | 0.00 | 0.00 | 75 | 1017.7 |
| 20260509112003 | 60 | 103 | 0.9 | 1.7 | 0.00 | 0.00 | 0.00 | 76 | 1017.6 |
| 20260509111004 | 60 | 135 | 0.0 | 1.7 | 0.00 | 0.00 | 0.00 | 76 | 1017.7 |
| 20260509105003 | 61 | 246 | 0.9 | 1.7 | 0.00 | 0.00 | 0.00 | 74 | 1017.5 |
| 20260509104003 | 61 | 284 | 0.0 | 0.9 | 0.00 | 0.00 | 0.00 | 74 | 1017.5 |
| 20260509103004 | 61 | 100 | 0.9 | 0.9 | 0.00 | 0.00 | 0.00 | 74 | 1017.3 |
| 20260509102005 | 62 | 90 | 0.0 | 0.9 | 0.00 | 0.00 | 0.00 | 74 | 1017.6 |
| 20260509101004 | 61 | 90 | 0.0 | 0.9 | 0.00 | 0.00 | 0.00 | 72 | 1017.3 |
| 20260509100005 | 61 | 261 | 0.0 | 1.7 | 0.00 | 0.00 | 0.00 | 71 | 1017.5 |
| 20260509095004 | 61 | 123 | 0.0 | 1.7 | 0.00 | 0.00 | 0.00 | 71 | 1017.5 |
| 20260509094004 | 62 | 279 | 0.0 | 0.9 | 0.00 | 0.00 | 0.00 | 70 | 1017.5 |
| 20260509093004 | 62 | 263 | 0.0 | 0.9 | 0.00 | 0.00 | 0.00 | 70 | 1017.3 |
| 20260509092003 | 62 | 195 | 0.0 | 1.7 | 0.00 | 0.00 | 0.00 | 69 | 1017.3 |
| 20260509091003 | 63 | 250 | 0.0 | 1.7 | 0.00 | 0.00 | 0.00 | 68 | 1017.5 |
| 20260509090004 | 63 | 203 | 0.9 | 0.9 | 0.00 | 0.00 | 0.00 | 67 | 1017.3 |
| 20260509084004 | 63 | 139 | 0.0 | 0.9 | 0.00 | 0.00 | 0.00 | 66 | 1017.6 |
| 20260509082003 | 63 | 135 | 1.7 | 2.6 | 0.00 | 0.00 | 0.00 | 66 | 1017.8 |
| 20260509081005 | 64 | 126 | 0.9 | 2.6 | 0.00 | 0.00 | 0.00 | 64 | 1017.7 |
| 20260509075004 | 63 | 77 | 0.9 | 0.9 | 0.00 | 0.00 | 0.00 | 67 | 1017.8 |
| 20260509074004 | 63 | 113 | 0.0 | 2.6 | 0.00 | 0.00 | 0.00 | 67 | 1018.3 |
| 20260509072003 | 64 | 234 | 0.0 | 1.7 | 0.00 | 0.00 | 0.00 | 66 | 1018.2 |
| 20260509071005 | 64 | 225 | 0.9 | 1.7 | 0.00 | 0.00 | 0.00 | 67 | 1018.2 |
| 20260509070004 | 64 | 270 | 0.0 | 0.9 | 0.00 | 0.00 | 0.00 | 66 | 1018.5 |
| 20260509064004 | 65 | 306 | 1.7 | 4.3 | 0.00 | 0.00 | 0.00 | 61 | 1018.4 |
| 20260509062005 | 65 | 112 | 0.0 | 2.6 | 0.00 | 0.00 | 0.00 | 54 | 1018.5 |
| 20260509061004 | 66 | 248 | 0.9 | 5.2 | 0.00 | 0.00 | 0.00 | 56 | 1018.7 |
| 20260509060005 | 67 | 104 | 0.0 | 2.6 | 0.00 | 0.00 | 0.00 | 55 | 1018.7 |
| 20260509054004 | 66 | 99 | 1.7 | 2.6 | 0.00 | 0.00 | 0.00 | 63 | 1018.9 |
| 20260509053004 | 67 | 320 | 0.0 | 4.3 | 0.00 | 0.00 | 0.00 | 62 | 1019.0 |
| 20260509052004 | 69 | 82 | 0.0 | 2.6 | 0.00 | 0.00 | 0.00 | 55 | 1018.9 |
| 20260509050004 | 70 | 76 | 0.9 | 7.8 | 0.00 | 0.00 | 0.00 | 53 | 1018.4 |
| 20260509045004 | 70 | 96 | 2.6 | 7.8 | 0.00 | 0.00 | 0.00 | 52 | 1018.4 |
| 20260509044004 | 69 | 67 | 1.7 | 19.1 | 0.00 | 0.00 | 0.00 | 52 | 1018.2 |
| 20260509043004 | 70 | 138 | 5.2 | 19.1 | 0.00 | 0.00 | 0.00 | 52 | 1017.8 |
| 20260509042004 | 69 | 137 | 4.3 | 18.2 | 0.00 | 0.00 | 0.00 | 55 | 1017.5 |
| 20260509041004 | 70 | 154 | 7.0 | 21.7 | 0.00 | 0.00 | 0.00 | 54 | 1017.4 |
| 20260509040005 | 71 | 139 | 7.8 | 17.4 | 0.00 | 0.00 | 0.00 | 56 | 1017.4 |
| 20260509035005 | 71 | 138 | 6.1 | 17.4 | 0.00 | 0.00 | 0.00 | 56 | 1017.2 |